Location: Ebersheim
(48.3033°N, 7.4991°E)
Time: 05:03:40
(UTC+00:00)

STARLINK-24 - Pass Details

Date: 27 February 2020
Orbit: 527 x 529 km, 53.0° (Epoch: 31 March)

Event Time Altitude Azimuth Distance (km) Brightness Sun altitude
Rises 18:34:58 0° 283° (WNW) 2,665 8.9 -14.9°
Reaches altitude 10° 18:37:17 10° 291° (WNW) 1,776 7.4 -15.3°
Maximum altitude 18:41:07 41° 3° (N) 772 4.3 -15.9°
Enters shadow 18:42:55 26° 57° (ENE) 1,077 4.7 -16.2°
